Weather in Sulak

Russia / Saratov Oblast     51°50′39″N   48°20′53″E
temp.,
°C
wind,
m/s
gust,
m/s
humid.,
%
clouds,
%
prec.,
mm/h
press.,
hPa
HPBL,
m
24 june, thu
thu2401:00+24nne34710 0.0 101853
04:00+22e12740 0.0 101813
07:00+25nne22670 0.0 1019148
10:00+29nne32540 0.0 1019658
13:00+32nne43442 0.0 10181698
16:00+32nnw33380 0.0 10172298
19:00+30nnw23500 0.0 1016220
22:00+23ne467237 0.0 1017142
25 june, fri
fri2501:00+20ene3486100 1.1 101783
04:00+19nne33855 1.1 101745
07:00+22n247425 0.0 1017186
10:00+27nne455722 0.0 1016710
13:00+31nne564610 0.0 10161460
16:00+32ne45420 0.0 10151908
19:00+30ne34510 0.0 1014249
22:00+25ene22650 0.0 101411
26 june, sat
sat2601:00+24ene11700 0.0 101411
04:00+23nnw22756 0.0 101411
07:00+25n227096 0.1 1014126
10:00+30nne335714 0.1 1014694
13:00+33n3241100 0.0 10131912
16:00+34n443881 0.0 10132615
19:00+30n47569 0.0 1012279
22:00+24sse125814 0.0 101314
27 june, sun
sun2701:00+23nne237011 0.0 101224
04:00+22ne228386 0.6 101318
07:00+25ne127337 0.0 1014136
10:00+30nne11565 0.0 1013744
13:00+33nnw33398 0.0 10132181
16:00+33n44385 0.0 10132385
19:00+31nne454852 0.0 1012235
22:00+22ne47785 0.2 1013153
28 june, mon
mon2801:00+21e22675 0.7 101321
04:00+20ne22735 0.7 101325
07:00+23ne336726 0.0 1013151
10:00+28ne33525 0.0 1013612
13:00+31nne22431 0.0 10131351
16:00+33nne32390 0.0 10121912
19:00+31nne34480 0.0 1011202
22:00+26nne34680 0.0 101150